"Pseudo-MPEC" for ZX966D7

Created 2018 Dec 9 15:18:27 UT using Find_Orb

Click here for an explanation of pseudo-MPECs

 
 Astrometry: 
     ZX966D7  C2018 12 04.41477 08 25 37.98 +15 49 28.4          21.7 GVNEOCPG96
     ZX966D7  C2018 12 04.41987 08 25 37.55 +15 49 14.1                VNEOCPG96
     ZX966D7  C2018 12 04.42498 08 25 37.14 +15 48 59.7                VNEOCPG96
     ZX966D7  C2018 12 04.43009 08 25 36.77 +15 48 44.7          21.6 GVNEOCPG96
     ZX966D7  C2018 12 043U@]L[tY_W$*rN]#+l*oCImDAstrometry=6F3AYhpnwjN6c+:mWH01
     ZX966D7  C2018 12 04CwalE_d[_wW@si4p3,vHj%CO:qLXn#@:HY$*?Va7vZd*:'j6)jZbH01
     ZX966D7  C2018 12 04`9U!a4YE-5`EetKPXe1HV:m6V4F3M5H3N#hjkHiy]*x#XIS7i_EXH01
     ZX966D7  C2018 12 04HqI[yJirL3K/=IfuL?f;]L`o2v^SW_!(c7(i;K;g^redacted;@PH01
     ZX966D7  C2018 12 04.53651 08 25 28.08 +15 43 41.6          22.0 GVNEOCPG96
     ZX966D7  C2018 12 04.53796 08 25 27.92 +15 43 37.2                VNEOCPG96
     ZX966D7  C2018 12 04.53941 08 25 27.86 +15 43 32.7          21.9 GVNEOCPG96
     ZX966D7 KC2018 12 05q1twrCdn[=%us.^djM%oCl.cvc-9H#Pth$q:![b]ShXPpjtwIi@oL01
     ZX966D7 KC2018 12 05cH5]69/Q:D9QQ[cWeY!_1JO+?i1A4p_\+BMD+X8PKj'--9Lg:2R?L01
     ZX966D7 KC2018 12 05c;?HRJDYH*7;4b+oI8.vY#beB#IDPPaEIcQt.0v8G7dvugi*=-%hL01
     ZX966D7  C2018 12 05.21640 08 24 35.16 +15 11 15.3          21.1 VSNEOCP033
     ZX966D7  C2018 12 05.21997 08 24 34.88 +15 11 05.4          21.1 VSNEOCP033
     ZX966D7  C2018 12 05.22353 08 24 34.59 +15 10 55.2          20.9 VSNEOCP033
     ZX966D7  C2018 12 059B@c,r7n(3`*%fH!a5DE-clickGRf5[IE*!^AG2m^vLfZQ,(,n=QH01
     ZX966D7  C2018 12 05':mxHe$ifk7%q3Q8m\DOBllM,q%Rl3V9:.;Y2_EWvJ)cUuVk?_4fH01
     ZX966D7  C2018 12 05rgkN[_6v#[ZWhc@x^PiX5#DA?pw`Np'sxb3i_+ltIRljLj(WY:l7H01
     ZX966D7  C2018 12 05jiQdg:w0S(M,)YxM,B/c!$/lwYpLI_$3rd7KmmxSvXQ#sg'Nk6u-H01
     ZX966D7 KC2018 12 07v(##h:K5-IB^[s;yF(hereZNsKI[8!!PKkLSo)S7CX+[Hi=u*pugH21
     ZX966D7 KC2018 12 07nNCDS4K`]T9NRKT],IQd@LQqPlM#3A+0f^ykD\y7eQb?hHvHrMglH21
     ZX966D7 KC2018 12 07ax1lbQ*av(xv?c'[(p)XrU,_!:XrDhb+@NQ)Y[jVch,\+3q4]TlVH21
     ZX966D7  C2018 12 08.13111 08 20 29.44 +12 52 06.0          22.0 VSNEOCP033
     ZX966D7  C2018 12 08.13468 08 20 29.11 +12 51 55.2          21.5 VSNEOCP033
     ZX966D7  C2018 12 08.13825 08 20 28.75 +12 51 45.0          22.3 VSNEOCP033
     ZX966D7 KC2018 12 09^jO\(?adr$R$:^k1LOfr+P%oKNSpj.EjLF,g0Xl6`T(rZ18-h2p]L01
     ZX966D7 KC2018 12 09SoCY;*F%bluyS*[%dl=qb+]XBO#3\k@i`HUHoZ0a0cn:forDs$j6L01
     ZX966D7 KC2018 12 09b4+yYLh@j7ul`0!@@pZC8/Zha/VrMr`3K@9::]+iOEy+FsKpSj:FL01
     ZX966D7 KC2018 12 093eqMxBG76atu+#@*.g$Z]1$wWW%FqcD^N;2^3=NOkJZnjdVWBjoT691
     ZX966D7 KC2018 12 09wiV[qKGwc[:8d_bD-,bc+T39H3$N_jK(`yK.v5ij'-OCQ6O9mxTZ691
     ZX966D7 KC2018 12 09:c6:J5?XfT!V5.`X9v.,vU+*jP;8yy:explanationc5.g%(EE\!691

Station data:
(033) Karl Schwarzschild Observatory, Tautenburg  (N50.980140 E11.711240)
   Germany. 1.3-m Schmidt.
(691) Steward Observatory, Kitt Peak - Spacewatch  (N31.962174 W111.600327)
   US/Arizona.  Observer J. V. Scotti. 0.9-m f/3 reflector + CCD.
(G96) Mt. Lemmon Survey  (N32.442754 W110.788720)  US/Arizona.  Observers B.
   M. Africano, E. J. Christensen, G. A. Farneth, D. C. Fuls, A. R. Gibbs, A.
   D. Grauer, H. Groeller, J. A. Johnson, R. A. Kowalski, S. M. Larson, G. J.
   Leonard, R. L. Seaman, F. C. Shelly. 1.5-m reflector + 10K CCD.
(H01) Magdalena Ridge Observatory, Socorro  (N33.984833 W107.189333)  US/New
   Mexico.  Observers W. H. Ryan, E. V. Ryan. Measurer W. H. Ryan. 2.4-m
   f/8.9 reflector + CCD.
(H21) Astronomical Research Observatory, Westfield  (N39.483057 W87.968270)
   US/Illinois. 0.76-m f/3.0 astrograph + CCD.
(L01) Višnjan Observatory, Tičan  (N45.290900 E13.749300)  Croatia.
   Observers K. Korlević, E. Pettarin. Measurer E. Pettarin. 1.0-m f/2.9
   reflector + CCD.

Orbital elements:  ZX966D7
   Perihelion 2018 Oct 2.938999 +/- 0.101 TT = 22:32:09 (JD 2458394.438999)
Epoch 2018 Dec  9.0 TT = JDT 2458461.5   Earth MOID: 0.4040   AutoNEOCP
M  17.55845732 +/- 0.16             (J2000 ecliptic)
n   0.26182814 +/- 0.00211          Peri.  135.99125 +/- 0.11
a   2.41986886 +/- 0.013            Node   269.67311 +/- 0.044
e   0.4619446 +/- 0.00228           Incl.   32.57886 +/- 0.09
P   3.76                   H 20.8   G  0.15   U  8.6  
q 1.30202342 +/- 0.00165    Q 3.53771430 +/- 0.0243
From 33 observations 2018 Dec. 4-9; mean residual 0".32
Residuals in arcseconds: 
181204 G96  .16-  .11-    181205 L01  .01-  .42-    181207 H21  .02+  .24+    
181204 G96  .38-  .11+    181205 L01  1.2-  .35+    181207 H21  .04-  .33+    
181204 G96  .30-  .26+    181205 L01  .11-  .36+    181208 033  .20+  .09-    
181204 G96  .36+  .19-    181205 033  .29+  .30-    181208 033  .25+  .65-    
181204 H01  .16+  .25-    181205 033  .49+  .03+    181208 033  .14-  .60-    
181204 H01  .14+  .20-    181205 033  .52+  .04+    181209 L01  .25-  .27+    
181204 H01  .00   .15-    181205 H01  .08+  .11-    181209 L01  .53-  .35+    
181204 H01  .16+  .16-    181205 H01  .09+  .01-    181209 L01  .35+  .54+    
181204 G96  .14+  .60+    181205 H01  .03+  .18-    181209 691  .09+  .52-    
181204 G96  .47-  .35+    181205 H01  .08-  .15-    181209 691  .27+  .22+    
181204 G96  .36+  .00     181207 H21  .11-  .19+    181209 691  .17-  .19-    

Ephemerides (geocentric):
Date (UTC) HH   RA              Dec         delta   r     elong  mag " sig PA
---- -- -- --  -------------   -----------  ------ ------ -----  --- ---- ---
2018 12 09 15  08 18 12.055   +11 40 51.89  .60910 1.4676 132.6 21.9 .184 118
2018 12 09 16  08 18 08.114   +11 38 52.52  .60904 1.4678 132.7 21.9 .194 117
2018 12 09 17  08 18 04.168   +11 36 53.16  .60899 1.4680 132.7 21.9 .204 117
2018 12 09 18  08 18 00.216   +11 34 53.80  .60893 1.4682 132.8 21.9 .214 117
2018 12 09 19  08 17 56.258   +11 32 54.45  .60888 1.4683 132.8 21.9 .224 117
2018 12 09 20  08 17 52.295   +11 30 55.11  .60882 1.4685 132.9 21.9 .235 117
2018 12 09 21  08 17 48.326   +11 28 55.78  .60877 1.4687 132.9 21.9 .246 116
2018 12 09 22  08 17 44.351   +11 26 56.46  .60872 1.4689 133.0 21.9 .256 116
2018 12 09 23  08 17 40.371   +11 24 57.14  .60867 1.4691 133.0 21.9 .267 116
2018 12 10 00  08 17 36.385   +11 22 57.84  .60861 1.4693 133.0 21.9 .279 116
2018 12 10 01  08 17 32.394   +11 20 58.54  .60856 1.4694 133.1 21.9 .290 116
2018 12 10 02  08 17 28.397   +11 18 59.25  .60851 1.4696 133.1 21.9 .301 116
2018 12 10 03  08 17 24.395   +11 16 59.97  .60846 1.4698 133.2 21.9 .313 116
2018 12 10 04  08 17 20.387   +11 15 00.70  .60841 1.4700 133.2 21.9 .324 115
2018 12 10 05  08 17 16.373   +11 13 01.45  .60836 1.4702 133.3 21.9 .336 115
2018 12 10 06  08 17 12.354   +11 11 02.20  .60831 1.4704 133.3 21.9 .348 115
2018 12 10 07  08 17 08.329   +11 09 02.96  .60826 1.4706 133.4 21.9 .360 115
2018 12 10 08  08 17 04.299   +11 07 03.73  .60822 1.4707 133.4 21.9 .373 115
2018 12 10 09  08 17 00.263   +11 05 04.51  .60817 1.4709 133.5 21.9 .385 115
2018 12 10 10  08 16 56.222   +11 03 05.31  .60812 1.4711 133.5 21.9 .398 115
2018 12 10 11  08 16 52.175   +11 01 06.11  .60807 1.4713 133.5 21.9 .411 115
2018 12 10 12  08 16 48.123   +10 59 06.93  .60803 1.4715 133.6 21.9 .423 115
2018 12 10 13  08 16 44.065   +10 57 07.76  .60798 1.4717 133.6 21.9 .436 115
2018 12 10 14  08 16 40.002   +10 55 08.60  .60793 1.4718 133.7 21.9 .450 115
2018 12 10 15  08 16 35.933   +10 53 09.45  .60789 1.4720 133.7 21.9 .463 115
2018 12 10 16  08 16 31.859   +10 51 10.31  .60784 1.4722 133.8 21.9 .476 115
2018 12 10 17  08 16 27.779   +10 49 11.19  .60780 1.4724 133.8 21.9 .490 115
2018 12 10 18  08 16 23.694   +10 47 12.08  .60775 1.4726 133.9 21.9 .504 114
2018 12 10 19  08 16 19.604   +10 45 12.98  .60771 1.4728 133.9 21.9 .518 114
2018 12 10 20  08 16 15.508   +10 43 13.89  .60767 1.4730 133.9 21.9 .532 114
2018 12 10 21  08 16 11.406   +10 41 14.82  .60762 1.4731 134.0 21.9 .546 114
2018 12 10 22  08 16 07.300   +10 39 15.76  .60758 1.4733 134.0 21.9 .560 114
2018 12 10 23  08 16 03.187   +10 37 16.72  .60754 1.4735 134.1 21.9 .575 114
2018 12 11 00  08 15 59.070   +10 35 17.69  .60750 1.4737 134.1 21.9 .590 114
2018 12 11 01  08 15 54.947   +10 33 18.67  .60745 1.4739 134.2 21.9 .604 114
2018 12 11 02  08 15 50.819   +10 31 19.67  .60741 1.4741 134.2 21.9 .619 114
2018 12 11 03  08 15 46.685   +10 29 20.68  .60737 1.4743 134.3 21.9 .634 114
2018 12 11 04  08 15 42.546   +10 27 21.71  .60733 1.4744 134.3 21.9 .650 114
2018 12 11 05  08 15 38.402   +10 25 22.75  .60729 1.4746 134.4 21.9 .665 114
2018 12 11 06  08 15 34.252   +10 23 23.81  .60725 1.4748 134.4 21.9 .681 114
2018 12 11 07  08 15 30.097   +10 21 24.88  .60721 1.4750 134.4 21.9 .696 114
2018 12 11 08  08 15 25.936   +10 19 25.97  .60718 1.4752 134.5 21.9 .712 114
2018 12 11 09  08 15 21.771   +10 17 27.07  .60714 1.4754 134.5 21.9 .728 114
2018 12 11 10  08 15 17.600   +10 15 28.19  .60710 1.4756 134.6 21.9 .744 114
2018 12 11 11  08 15 13.423   +10 13 29.33  .60706 1.4758 134.6 21.9 .760 114
2018 12 11 12  08 15 09.242   +10 11 30.48  .60703 1.4759 134.7 21.9 .777 114
2018 12 11 13  08 15 05.055   +10 09 31.65  .60699 1.4761 134.7 21.9 .793 114
2018 12 11 14  08 15 00.863   +10 07 32.84  .60695 1.4763 134.8 21.9 .810 114